ARG1936 SACO-SAZM

Flight info

Callsign ARG1936
Flight time 1h 23m
Altitude 35000
Route SIMES1G SIMES UZ113 IRASU UW15 DIL W28 ESURO ESURO2Q
Aircraft B738/M-SDE2E3FGHIRWXY/LB1

Departure

Time 2026-05-07 02:22
Airport Ingeniero Aeronáutico Ambrosio L.V. Taravella International Airport (SACO)

Arrival

Time 2026-05-07 03:45
Airport Ástor Piazzola International Airport (SAZM)
Time Latitude Longitude Altitude Speed Heading
2026-05-07 02:16 -31.31400 -64.21101 1622 ft 0 kts 181°
2026-05-07 02:17 -31.31401 -64.21101 1622 ft 2 kts 181°
2026-05-07 02:18 -31.31449 -64.21100 1618 ft 9 kts 166°
2026-05-07 02:18 -31.31471 -64.21038 1612 ft 9 kts 82°
2026-05-07 02:18 -31.31465 -64.20965 1612 ft 9 kts 89°
2026-05-07 02:18 -31.31466 -64.20891 1613 ft 12 kts 88°
2026-05-07 02:19 -31.31373 -64.20829 1618 ft 24 kts 359°
2026-05-07 02:19 -31.31168 -64.20833 1613 ft 35 kts 359°
2026-05-07 02:19 -31.30899 -64.20837 1616 ft 40 kts 359°
2026-05-07 02:19 -31.30630 -64.20843 1614 ft 37 kts 359°
2026-05-07 02:20 -31.30382 -64.20848 1617 ft 34 kts 360°
2026-05-07 02:20 -31.30158 -64.20850 1616 ft 31 kts 359°
2026-05-07 02:20 -31.29950 -64.20853 1616 ft 29 kts 359°
2026-05-07 02:20 -31.29759 -64.20855 1619 ft 25 kts 360°
2026-05-07 02:21 -31.29648 -64.20887 1613 ft 11 kts 332°
2026-05-07 02:21 -31.29632 -64.20852 1614 ft 10 kts 168°
2026-05-07 02:21 -31.29735 -64.20855 1616 ft 26 kts 179°
2026-05-07 02:21 -31.30152 -64.20850 1617 ft 94 kts 179°
2026-05-07 02:22 -31.31014 -64.20835 1619 ft 151 kts 180°
2026-05-07 02:22 -31.32188 -64.20834 1867 ft 178 kts 181°
2026-05-07 02:22 -31.33460 -64.20785 2512 ft 191 kts 174°
2026-05-07 02:22 -31.34689 -64.20145 3099 ft 207 kts 143°
2026-05-07 02:23 -31.35762 -64.18848 3326 ft 232 kts 135°
2026-05-07 02:23 -31.36895 -64.17392 3543 ft 250 kts 136°
2026-05-07 02:23 -31.38117 -64.15905 4052 ft 257 kts 139°
2026-05-07 02:23 -31.39408 -64.14434 4652 ft 259 kts 141°
2026-05-07 02:24 -31.40731 -64.13007 5362 ft 259 kts 143°
2026-05-07 02:24 -31.42086 -64.11595 5942 ft 263 kts 144°
2026-05-07 02:24 -31.43438 -64.10207 6675 ft 261 kts 145°
2026-05-07 02:24 -31.44815 -64.08801 7352 ft 264 kts 144°
2026-05-07 02:25 -31.46185 -64.07321 7971 ft 274 kts 135°
2026-05-07 02:25 -31.47389 -64.05454 8210 ft 300 kts 127°
2026-05-07 02:25 -31.48573 -64.03374 8707 ft 310 kts 127°
2026-05-07 02:25 -31.49784 -64.01271 9419 ft 314 kts 127°
2026-05-07 02:26 -31.51047 -63.99139 10014 ft 320 kts 128°
2026-05-07 02:26 -31.52339 -63.96987 10353 ft 337 kts 127°
2026-05-07 02:26 -31.53920 -63.94858 10481 ft 355 kts 146°
2026-05-07 02:26 -31.56022 -63.93230 10796 ft 367 kts 151°
2026-05-07 02:27 -31.58224 -63.91632 11288 ft 374 kts 151°
2026-05-07 02:27 -31.60454 -63.90014 11889 ft 379 kts 151°
2026-05-07 02:27 -31.62711 -63.88363 12468 ft 385 kts 150°
2026-05-07 02:27 -31.64997 -63.86675 13032 ft 390 kts 150°
2026-05-07 02:28 -31.67318 -63.84949 13571 ft 397 kts 150°
2026-05-07 02:28 -31.69666 -63.83196 14062 ft 403 kts 150°
2026-05-07 02:28 -31.72011 -63.81438 14617 ft 407 kts 150°
2026-05-07 02:28 -31.74406 -63.79641 15184 ft 410 kts 150°
2026-05-07 02:29 -31.76826 -63.77823 15743 ft 414 kts 150°
2026-05-07 02:29 -31.79269 -63.75986 16268 ft 420 kts 150°
2026-05-07 02:29 -31.81745 -63.74124 16767 ft 425 kts 151°
2026-05-07 02:29 -31.84250 -63.72239 17312 ft 428 kts 151°
2026-05-07 02:30 -31.86747 -63.70358 17871 ft 433 kts 151°
2026-05-07 02:30 -31.89301 -63.68434 18291 ft 439 kts 151°
2026-05-07 02:30 -31.91888 -63.66483 18761 ft 442 kts 151°
2026-05-07 02:30 -31.94486 -63.64522 19289 ft 444 kts 151°
2026-05-07 02:31 -31.97101 -63.62546 19796 ft 447 kts 152°
2026-05-07 02:31 -31.99737 -63.60553 20273 ft 451 kts 152°
2026-05-07 02:31 -32.02386 -63.58551 20740 ft 454 kts 152°
2026-05-07 02:31 -32.05059 -63.56534 21207 ft 457 kts 153°
2026-05-07 02:32 -32.07805 -63.54728 21677 ft 456 kts 159°
2026-05-07 02:32 -32.10668 -63.53139 22183 ft 456 kts 161°
2026-05-07 02:32 -32.13592 -63.51629 22667 ft 458 kts 162°
2026-05-07 02:32 -32.16527 -63.50137 23109 ft 461 kts 162°
2026-05-07 02:33 -32.19484 -63.48618 23480 ft 464 kts 162°
2026-05-07 02:33 -32.22454 -63.47062 23857 ft 467 kts 161°
2026-05-07 02:33 -32.25386 -63.45501 24224 ft 470 kts 161°
2026-05-07 02:33 -32.28373 -63.43891 24564 ft 473 kts 161°
2026-05-07 02:34 -32.31376 -63.42263 24900 ft 476 kts 161°
2026-05-07 02:34 -32.34431 -63.40598 25271 ft 478 kts 161°
2026-05-07 02:34 -32.37430 -63.38962 25615 ft 481 kts 161°
2026-05-07 02:34 -32.40468 -63.37304 25939 ft 483 kts 161°
2026-05-07 02:35 -32.43541 -63.35627 26261 ft 486 kts 161°
2026-05-07 02:35 -32.46619 -63.33947 26578 ft 489 kts 161°
2026-05-07 02:35 -32.49718 -63.32255 26904 ft 491 kts 161°
2026-05-07 02:35 -32.52834 -63.30553 27247 ft 494 kts 161°
2026-05-07 02:36 -32.55979 -63.28834 27545 ft 497 kts 161°
2026-05-07 02:36 -32.59086 -63.27134 27836 ft 499 kts 161°
2026-05-07 02:36 -32.62284 -63.25382 28138 ft 502 kts 161°
2026-05-07 02:36 -32.65424 -63.23661 28425 ft 504 kts 161°
2026-05-07 02:37 -32.68651 -63.21891 28706 ft 506 kts 161°
2026-05-07 02:37 -32.71856 -63.20132 28976 ft 509 kts 161°
2026-05-07 02:37 -32.75049 -63.18378 29258 ft 511 kts 161°
2026-05-07 02:37 -32.78283 -63.16601 29514 ft 514 kts 161°
2026-05-07 02:38 -32.81538 -63.14810 29777 ft 516 kts 161°
2026-05-07 02:38 -32.84800 -63.13013 29983 ft 517 kts 161°
2026-05-07 02:38 -32.88067 -63.11211 30307 ft 516 kts 161°
2026-05-07 02:38 -32.91321 -63.09413 30698 ft 513 kts 161°
2026-05-07 02:39 -32.94551 -63.07627 31094 ft 511 kts 161°
2026-05-07 02:39 -32.97783 -63.05842 31304 ft 513 kts 160°
2026-05-07 02:39 -33.01028 -63.04050 31466 ft 516 kts 160°
2026-05-07 02:39 -33.04288 -63.02247 31741 ft 515 kts 160°
2026-05-07 02:40 -33.07493 -63.00472 32096 ft 513 kts 160°
2026-05-07 02:40 -33.10729 -62.98677 32445 ft 511 kts 160°
2026-05-07 02:40 -33.13946 -62.96892 32723 ft 510 kts 160°
2026-05-07 02:40 -33.17181 -62.95097 32979 ft 512 kts 159°
2026-05-07 02:41 -33.23717 -62.91468 33095 ft 521 kts 159°
2026-05-07 02:41 -33.27004 -62.89638 33378 ft 520 kts 159°
2026-05-07 02:41 -33.30272 -62.87815 33731 ft 517 kts 159°
2026-05-07 02:42 -33.33521 -62.86002 34004 ft 515 kts 159°
2026-05-07 02:42 -33.36730 -62.84211 34210 ft 515 kts 159°
2026-05-07 02:42 -33.39985 -62.82394 34344 ft 515 kts 159°
2026-05-07 02:42 -33.43209 -62.80592 34727 ft 509 kts 159°
2026-05-07 02:43 -33.49730 -62.77151 34704 ft 510 kts 163°
2026-05-07 02:43 -33.56304 -62.74136 34688 ft 505 kts 164°
2026-05-07 02:44 -33.62876 -62.71137 34689 ft 505 kts 163°
2026-05-07 02:44 -33.69452 -62.68063 34685 ft 505 kts 162°
2026-05-07 02:45 -33.75958 -62.64999 34699 ft 506 kts 163°
2026-05-07 02:45 -33.82494 -62.61749 34704 ft 511 kts 159°
2026-05-07 02:46 -33.88977 -62.58149 34702 ft 514 kts 158°
2026-05-07 02:46 -33.95483 -62.54494 34700 ft 516 kts 159°
2026-05-07 02:47 -34.01693 -62.50082 34698 ft 523 kts 142°
2026-05-07 02:47 -34.07315 -62.44555 34694 ft 526 kts 141°
2026-05-07 02:48 -34.12967 -62.38922 34695 ft 528 kts 141°
2026-05-07 02:48 -34.18669 -62.33326 34728 ft 529 kts 142°
2026-05-07 02:49 -34.24418 -62.27734 34689 ft 531 kts 142°
2026-05-07 02:49 -34.30192 -62.22122 34661 ft 531 kts 142°
2026-05-07 02:50 -34.35895 -62.16563 34662 ft 521 kts 142°
2026-05-07 02:50 -34.41549 -62.11038 34685 ft 524 kts 142°
2026-05-07 02:51 -34.46293 -62.06394 34684 ft 528 kts 142°
2026-05-07 02:51 -34.52963 -61.99852 34681 ft 533 kts 142°
2026-05-07 02:52 -34.57776 -61.95123 34703 ft 537 kts 142°
2026-05-07 02:52 -34.63598 -61.89391 34662 ft 532 kts 142°
2026-05-07 02:53 -34.69276 -61.83789 34665 ft 521 kts 142°
2026-05-07 02:53 -34.75831 -61.77314 34673 ft 524 kts 142°
2026-05-07 02:54 -34.80601 -61.72595 34679 ft 531 kts 141°
2026-05-07 02:54 -34.86360 -61.66885 34673 ft 536 kts 141°
2026-05-07 02:55 -34.92151 -61.61132 34707 ft 537 kts 141°
2026-05-07 02:55 -34.97960 -61.55350 34670 ft 540 kts 141°
2026-05-07 02:56 -35.03752 -61.49575 34659 ft 540 kts 141°
2026-05-07 02:56 -35.09577 -61.43755 34675 ft 540 kts 141°
2026-05-07 02:57 -35.15399 -61.37927 34656 ft 540 kts 141°
2026-05-07 02:57 -35.21210 -61.32100 34620 ft 539 kts 141°
2026-05-07 02:58 -35.26969 -61.26313 34642 ft 536 kts 141°
2026-05-07 02:58 -35.32717 -61.20526 34649 ft 533 kts 141°
2026-05-07 02:59 -35.38429 -61.14766 34642 ft 530 kts 141°
2026-05-07 02:59 -35.44117 -61.09018 34649 ft 528 kts 141°
2026-05-07 03:00 -35.49763 -61.03302 34613 ft 528 kts 141°
2026-05-07 03:00 -35.55420 -60.97564 34646 ft 526 kts 141°
2026-05-07 03:01 -35.61057 -60.91836 34647 ft 525 kts 141°
2026-05-07 03:01 -35.66691 -60.86100 34643 ft 525 kts 141°
2026-05-07 03:02 -35.72287 -60.80392 34651 ft 526 kts 141°
2026-05-07 03:02 -35.77921 -60.74634 34598 ft 527 kts 141°
2026-05-07 03:03 -35.83543 -60.68877 34629 ft 527 kts 141°
2026-05-07 03:03 -35.89190 -60.63084 34630 ft 528 kts 141°
2026-05-07 03:04 -35.94834 -60.57283 34629 ft 528 kts 141°
2026-05-07 03:04 -36.00487 -60.51461 34624 ft 530 kts 141°
2026-05-07 03:05 -36.06118 -60.45650 34565 ft 530 kts 141°
2026-05-07 03:05 -36.11801 -60.39775 34611 ft 528 kts 141°
2026-05-07 03:06 -36.17402 -60.33973 34616 ft 527 kts 140°
2026-05-07 03:06 -36.23030 -60.28131 34619 ft 526 kts 140°
2026-05-07 03:07 -36.28607 -60.22332 34345 ft 529 kts 140°
2026-05-07 03:07 -36.31441 -60.19381 33909 ft 529 kts 140°
2026-05-07 03:07 -36.34250 -60.16452 33370 ft 526 kts 140°
2026-05-07 03:08 -36.37036 -60.13545 33002 ft 520 kts 140°
2026-05-07 03:08 -36.39802 -60.10656 32557 ft 516 kts 140°
2026-05-07 03:08 -36.42541 -60.07792 32133 ft 512 kts 140°
2026-05-07 03:08 -36.45226 -60.04981 31731 ft 508 kts 140°
2026-05-07 03:09 -36.47958 -60.02120 31337 ft 505 kts 141°
2026-05-07 03:09 -36.50596 -59.99354 30925 ft 503 kts 141°
2026-05-07 03:09 -36.53263 -59.96556 30520 ft 500 kts 141°
2026-05-07 03:09 -36.55913 -59.93772 30118 ft 497 kts 141°
2026-05-07 03:10 -36.58552 -59.90997 29706 ft 496 kts 141°
2026-05-07 03:10 -36.61193 -59.88218 29189 ft 493 kts 141°
2026-05-07 03:10 -36.63795 -59.85478 28828 ft 488 kts 141°
2026-05-07 03:10 -36.66376 -59.82757 28399 ft 485 kts 140°
2026-05-07 03:11 -36.68939 -59.80052 27976 ft 482 kts 140°
2026-05-07 03:11 -36.71490 -59.77359 27571 ft 478 kts 140°
2026-05-07 03:11 -36.74018 -59.74686 27166 ft 475 kts 140°
2026-05-07 03:11 -36.76536 -59.72021 26771 ft 472 kts 140°
2026-05-07 03:12 -36.79033 -59.69378 26366 ft 469 kts 140°
2026-05-07 03:12 -36.81481 -59.66783 26003 ft 466 kts 140°
2026-05-07 03:12 -36.83954 -59.64159 25580 ft 464 kts 140°
2026-05-07 03:12 -36.86414 -59.61548 25183 ft 462 kts 140°
2026-05-07 03:13 -36.88857 -59.58952 24750 ft 460 kts 140°
2026-05-07 03:13 -36.91298 -59.56355 24372 ft 458 kts 140°
2026-05-07 03:13 -36.93726 -59.53771 23978 ft 456 kts 140°
2026-05-07 03:13 -36.96138 -59.51200 23568 ft 455 kts 140°
2026-05-07 03:14 -36.98545 -59.48633 23171 ft 453 kts 140°
2026-05-07 03:14 -37.00909 -59.46110 22712 ft 452 kts 140°
2026-05-07 03:14 -37.05658 -59.41034 21889 ft 446 kts 140°
2026-05-07 03:15 -37.08015 -59.38512 21483 ft 443 kts 140°
2026-05-07 03:15 -37.10345 -59.36017 21098 ft 440 kts 140°
2026-05-07 03:15 -37.12674 -59.33519 20737 ft 438 kts 140°
2026-05-07 03:15 -37.14985 -59.31040 20304 ft 436 kts 140°
2026-05-07 03:16 -37.17286 -59.28570 19919 ft 434 kts 140°
2026-05-07 03:16 -37.19579 -59.26106 19545 ft 432 kts 140°
2026-05-07 03:16 -37.21749 -59.23571 19130 ft 431 kts 131°
2026-05-07 03:16 -37.23587 -59.20629 18874 ft 423 kts 119°
2026-05-07 03:17 -37.25038 -59.17460 18590 ft 417 kts 115°
2026-05-07 03:17 -37.26417 -59.14255 18233 ft 415 kts 114°
2026-05-07 03:17 -37.27775 -59.11059 17849 ft 415 kts 114°
2026-05-07 03:17 -37.29136 -59.07860 17399 ft 415 kts 115°
2026-05-07 03:18 -37.30502 -59.04667 17016 ft 413 kts 115°
2026-05-07 03:18 -37.31863 -59.01506 16617 ft 411 kts 116°
2026-05-07 03:18 -37.33209 -58.98390 16245 ft 409 kts 116°
2026-05-07 03:18 -37.34568 -58.95251 15874 ft 407 kts 117°
2026-05-07 03:19 -37.35921 -58.92126 15513 ft 405 kts 117°
2026-05-07 03:19 -37.37262 -58.89029 15142 ft 403 kts 117°
2026-05-07 03:19 -37.38603 -58.85929 14750 ft 402 kts 118°
2026-05-07 03:19 -37.39931 -58.82853 14409 ft 399 kts 118°
2026-05-07 03:20 -37.41242 -58.79817 14015 ft 398 kts 119°
2026-05-07 03:20 -37.42556 -58.76768 13653 ft 396 kts 120°
2026-05-07 03:20 -37.43868 -58.73723 13263 ft 394 kts 120°
2026-05-07 03:20 -37.45172 -58.70692 12869 ft 391 kts 120°
2026-05-07 03:21 -37.46460 -58.67699 12499 ft 388 kts 120°
2026-05-07 03:21 -37.47741 -58.64717 12127 ft 385 kts 120°
2026-05-07 03:21 -37.49006 -58.61768 11764 ft 382 kts 120°
2026-05-07 03:21 -37.50267 -58.58827 11408 ft 379 kts 120°
2026-05-07 03:22 -37.51498 -58.55953 11062 ft 375 kts 120°
2026-05-07 03:22 -37.52734 -58.53066 10723 ft 372 kts 120°
2026-05-07 03:22 -37.53955 -58.50210 10379 ft 369 kts 120°
2026-05-07 03:22 -37.55165 -58.47377 10029 ft 366 kts 120°
2026-05-07 03:23 -37.56363 -58.44571 9863 ft 357 kts 120°
2026-05-07 03:23 -37.57522 -58.41850 9706 ft 348 kts 120°
2026-05-07 03:23 -37.58653 -58.39197 9558 ft 340 kts 120°
2026-05-07 03:23 -37.59755 -58.36607 9533 ft 327 kts 120°
2026-05-07 03:24 -37.60808 -58.34129 9502 ft 315 kts 120°
2026-05-07 03:24 -37.61835 -58.31714 9352 ft 309 kts 120°
2026-05-07 03:24 -37.62848 -58.29332 9067 ft 307 kts 120°
2026-05-07 03:24 -37.63855 -58.26961 8793 ft 306 kts 120°
2026-05-07 03:25 -37.64841 -58.24639 8589 ft 301 kts 120°
2026-05-07 03:25 -37.65826 -58.22315 8347 ft 298 kts 120°
2026-05-07 03:25 -37.66809 -58.19996 8048 ft 297 kts 119°
2026-05-07 03:25 -37.67785 -58.17691 7706 ft 298 kts 120°
2026-05-07 03:26 -37.68761 -58.15384 7424 ft 297 kts 120°
2026-05-07 03:26 -37.69707 -58.13112 7204 ft 294 kts 117°
2026-05-07 03:26 -37.70548 -58.10724 6945 ft 293 kts 114°
2026-05-07 03:26 -37.71311 -58.08385 6690 ft 291 kts 113°
2026-05-07 03:27 -37.72075 -58.06021 6442 ft 290 kts 113°
2026-05-07 03:27 -37.72838 -58.03677 6188 ft 288 kts 113°
2026-05-07 03:27 -37.73611 -58.01317 5938 ft 286 kts 113°
2026-05-07 03:27 -37.74366 -57.99025 5692 ft 284 kts 113°
2026-05-07 03:28 -37.75123 -57.96731 5440 ft 282 kts 113°
2026-05-07 03:28 -37.75872 -57.94466 5283 ft 275 kts 113°
2026-05-07 03:28 -37.76607 -57.92243 5032 ft 273 kts 114°
2026-05-07 03:28 -37.77339 -57.90028 4691 ft 275 kts 114°
2026-05-07 03:29 -37.78090 -57.87757 4249 ft 281 kts 114°
2026-05-07 03:29 -37.78932 -57.85521 3915 ft 281 kts 122°
2026-05-07 03:29 -37.79999 -57.83461 3618 ft 280 kts 125°
2026-05-07 03:29 -37.81094 -57.81418 3214 ft 283 kts 124°
2026-05-07 03:30 -37.82191 -57.79327 2855 ft 286 kts 124°
2026-05-07 03:30 -37.83282 -57.77215 2624 ft 287 kts 123°
2026-05-07 03:30 -37.84378 -57.75116 2537 ft 285 kts 125°
2026-05-07 03:30 -37.85466 -57.73071 2511 ft 271 kts 124°
2026-05-07 03:31 -37.86448 -57.71135 2369 ft 257 kts 123°
2026-05-07 03:31 -37.87383 -57.69274 2070 ft 250 kts 123°
2026-05-07 03:31 -37.88306 -57.67444 1727 ft 244 kts 123°
2026-05-07 03:31 -37.89209 -57.65658 1400 ft 235 kts 122°
2026-05-07 03:32 -37.90066 -57.63963 1097 ft 223 kts 122°
2026-05-07 03:32 -37.90873 -57.62366 840 ft 209 kts 122°
2026-05-07 03:32 -37.91631 -57.60868 596 ft 194 kts 122°
2026-05-07 03:32 -37.92328 -57.59489 413 ft 175 kts 122°
2026-05-07 03:33 -37.92963 -57.58247 699 ft 173 kts 122°
2026-05-07 03:33 -37.93419 -57.57356 1010 ft 195 kts 122°
2026-05-07 03:33 -37.94510 -57.55206 1616 ft 228 kts 122°
2026-05-07 03:33 -37.95382 -57.53482 2368 ft 235 kts 122°
2026-05-07 03:34 -37.95996 -57.52270 2697 ft 250 kts 122°
2026-05-07 03:34 -37.96995 -57.50299 2992 ft 277 kts 123°
2026-05-07 03:34 -37.97917 -57.48165 2957 ft 273 kts 105°
2026-05-07 03:34 -37.98126 -57.45852 2983 ft 256 kts 92°
2026-05-07 03:35 -37.98216 -57.43643 2964 ft 245 kts 92°
2026-05-07 03:35 -37.98249 -57.41508 2968 ft 239 kts 79°
2026-05-07 03:35 -37.97612 -57.39622 3085 ft 235 kts 44°
2026-05-07 03:35 -37.96361 -57.38318 3652 ft 234 kts 32°
2026-05-07 03:36 -37.95010 -57.37127 4394 ft 237 kts 32°
2026-05-07 03:36 -37.93644 -57.35931 4791 ft 241 kts 31°
2026-05-07 03:36 -37.92273 -57.34735 4931 ft 242 kts 31°
2026-05-07 03:36 -37.90866 -57.33540 4940 ft 248 kts 24°
2026-05-07 03:37 -37.89136 -57.33092 4970 ft 264 kts 348°
2026-05-07 03:37 -37.87488 -57.34023 4941 ft 262 kts 314°
2026-05-07 03:37 -37.86593 -57.35978 4949 ft 259 kts 280°
2026-05-07 03:37 -37.86456 -57.38247 4952 ft 260 kts 277°
2026-05-07 03:38 -37.86174 -57.40528 4941 ft 263 kts 280°
2026-05-07 03:38 -37.85827 -57.42802 4935 ft 264 kts 281°
2026-05-07 03:38 -37.85459 -57.45097 4920 ft 266 kts 281°
2026-05-07 03:38 -37.85085 -57.47386 4926 ft 265 kts 281°
2026-05-07 03:39 -37.84710 -57.49657 4918 ft 261 kts 281°
2026-05-07 03:39 -37.84336 -57.51895 4766 ft 262 kts 281°
2026-05-07 03:39 -37.83961 -57.54142 4517 ft 259 kts 281°
2026-05-07 03:39 -37.83591 -57.56366 4259 ft 257 kts 281°
2026-05-07 03:40 -37.83224 -57.58570 4016 ft 255 kts 281°
2026-05-07 03:40 -37.82863 -57.60752 3772 ft 252 kts 281°
2026-05-07 03:40 -37.82509 -57.62917 3522 ft 250 kts 281°
2026-05-07 03:40 -37.82171 -57.65004 3476 ft 239 kts 281°
2026-05-07 03:41 -37.81845 -57.67032 3351 ft 232 kts 281°
2026-05-07 03:41 -37.81534 -57.69029 3105 ft 231 kts 278°
2026-05-07 03:41 -37.81745 -57.71015 2833 ft 233 kts 243°
2026-05-07 03:41 -37.82914 -57.72394 2588 ft 236 kts 204°
2026-05-07 03:42 -37.84544 -57.72543 2345 ft 241 kts 165°
2026-05-07 03:42 -37.85920 -57.71428 2296 ft 230 kts 136°
2026-05-07 03:42 -37.86946 -57.69957 2159 ft 216 kts 130°
2026-05-07 03:42 -37.87804 -57.68453 1924 ft 205 kts 123°
2026-05-07 03:43 -37.88551 -57.66969 1656 ft 195 kts 122°
2026-05-07 03:43 -37.89254 -57.65570 1423 ft 180 kts 122°
2026-05-07 03:43 -37.89907 -57.64277 1209 ft 173 kts 123°
2026-05-07 03:43 -37.90560 -57.62985 941 ft 172 kts 122°
2026-05-07 03:44 -37.91179 -57.61761 733 ft 156 kts 122°
2026-05-07 03:44 -37.91732 -57.60667 543 ft 141 kts 122°
2026-05-07 03:44 -37.92242 -57.59667 362 ft 136 kts 122°
2026-05-07 03:44 -37.92746 -57.58665 152 ft 134 kts 120°
2026-05-07 03:45 -37.93236 -57.57688 43 ft 124 kts 122°
2026-05-07 03:45 -37.93585 -57.56991 44 ft 63 kts 123°
2026-05-07 03:45 -37.93781 -57.56618 45 ft 40 kts 122°
2026-05-07 03:45 -37.93889 -57.56395 44 ft 28 kts 121°
2026-05-07 03:46 -37.93990 -57.56354 45 ft 17 kts 234°
2026-05-07 03:46 -37.94034 -57.56466 47 ft 13 kts 263°
2026-05-07 03:46 -37.94002 -57.56569 47 ft 13 kts 298°
2026-05-07 03:46 -37.93961 -57.56665 47 ft 12 kts 299°
2026-05-07 03:47 -37.93917 -57.56763 47 ft 15 kts 300°
2026-05-07 03:47 -37.93855 -57.56901 44 ft 21 kts 299°
2026-05-07 03:47 -37.93773 -57.57086 47 ft 27 kts 299°
2026-05-07 03:47 -37.93711 -57.57225 44 ft 15 kts 300°
2026-05-07 03:48 -37.93662 -57.57335 47 ft 14 kts 300°
2026-05-07 03:48 -37.93614 -57.57441 47 ft 13 kts 300°
2026-05-07 03:48 -37.93569 -57.57542 45 ft 13 kts 300°
2026-05-07 03:48 -37.93525 -57.57640 47 ft 13 kts 298°
2026-05-07 03:49 -37.93485 -57.57736 47 ft 12 kts 298°
2026-05-07 03:49 -37.93444 -57.57830 47 ft 12 kts 299°
2026-05-07 03:49 -37.93404 -57.57922 45 ft 12 kts 299°
2026-05-07 03:49 -37.93366 -57.58007 47 ft 8 kts 303°
2026-05-07 03:50 -37.93344 -57.58042 46 ft 5 kts 308°
2026-05-07 03:50 -37.93329 -57.58070 46 ft 2 kts 303°
2026-05-07 03:50 -37.93325 -57.58078 47 ft 0 kts 303°